BEIDOU-3 M19

Last updated on Jan. 17, 2020, 4:32 a.m. UTC

1 44864U 19090A   20015.47023666  .00000039  00000-0  00000-0 0  9999
2 44864  55.0237 141.3619 0013531 256.1139  16.4825  1.86231781   569
UTC
Height (km)
Latitude
Longitude
Inclination
Orbital Period
UTC large
Height (km)
Speed (km/s)
/
Latitude / Longitude
Inclination (degrees)
Orbital Period (minutes)
Azimuth
Elevation
Range (km)
Doppler Factor
iOS Compass Heading
iOS Angle

Next 30 passes for location: Hong Kong

Rise time Rise Azimuth (degrees) Set time Set Azimuth (degrees) Duration Max altitude (degrees)

No matching passes for this satellites